Buffalo, NY

1:20 AM EST on December 09, 2016 (GMT -0500)
Buffalo Niagara International

Weather History for KBUF - December, 2012

Change the Weather History Date:

Friday, December 14, 2012

  Actual Average Record
Temperature  
Mean Temperature 37 °F 30 °F  
Max Temperature 43 °F 36 °F 71 °F (2015)
Min Temperature 31 °F 25 °F 2 °F (1989)
Degree Days  
Heating Degree Days 28 35  
Month to date heating degree days 343 454  
Since 1 July heating degree days 1622 1787  
Cooling Degree Days 0 0  
Month to date cooling degree days 0 0  
Year to date cooling degree days 875 544  
Moisture  
Dew Point 28 °F    
Average Humidity 70    
Maximum Humidity 92    
Minimum Humidity 48    
Precipitation  
Precipitation 0.00 in 0.13 in 1.53 in (1901)
Month to date precipitation 1.57 1.77  
Year to date precipitation 30.73 38.36  
Snow  
Snow 0.00 in 1.00 in 10.10 in (1907)
Month to date snowfall 0.3 10.4  
Since 1 July snowfall 2.7 19.2  
Snow Depth 0.00 in    
Sea Level Pressure  
Sea Level Pressure 30.22 in    
Wind  
Wind Speed 8 mph (SW)    
Max Wind Speed 16 mph    
Max Gust Speed 23 mph    
Visibility 9 miles    
Events      
T = Trace of Precipitation, MM = Missing Value Source: NWS Daily Summary

Daily Weather History Graph

Daily Weather History Graph

Search for Another Location

Airport or City:

Trip Planner

Search our weather history database for the weather conditions in past years. The results will help you decide how hot, cold, wet, or windy it might be!

Date:

Astronomy

Dec. 14, 2012 Rise Set
Actual Time 7:38 AM EST 4:41 PM EST
Civil Twilight 7:06 AM EST 5:13 PM EST
Nautical Twilight 6:30 AM EST 5:49 PM EST
Astronomical Twilight 5:56 AM EST 6:23 PM EST
Moon 8:40 AM EST (12/14) 6:33 PM EST (12/14)
Length of Visible Light 10h 06m
Length of Day
9h 02m
Waxing Crescent, 3% of the Moon is Illuminated
Dec 14
Waxing Crescent
Dec 20
First Quarter
Dec 28
Full
Jan 4
Last Quarter
Jan 11
New

Hourly Weather History & Observations

Time (EST) Temp. Windchill Dew Point Humidity Pressure Visibility Wind Dir Wind Speed Gust Speed Precip Events Conditions
12:54 AM 36.0 °F 26.7 °F 19.9 °F 52% 30.18 in 10.0 mi SSW 15.0 mph - N/A   Scattered Clouds
1:54 AM 37.0 °F 28.9 °F 19.0 °F 48% 30.18 in 10.0 mi SSW 12.7 mph - N/A   Partly Cloudy
2:54 AM 35.1 °F 25.9 °F 19.9 °F 54% 30.19 in 10.0 mi SSW 13.8 mph - N/A   Partly Cloudy
3:54 AM 34.0 °F 26.6 °F 19.9 °F 56% 30.18 in 10.0 mi SSW 9.2 mph - N/A   Mostly Cloudy
4:54 AM 36.0 °F 28.5 °F 19.9 °F 52% 30.17 in 10.0 mi SW 10.4 mph - N/A   Scattered Clouds
5:54 AM 35.6 °F 29.2 °F 21.2 °F 56% 30.15 in 10.0 mi SW 8.1 mph - N/A   Partly Cloudy
6:54 AM 35.1 °F 28.6 °F 24.1 °F 64% 30.18 in 10.0 mi SSW 8.1 mph - N/A   Scattered Clouds
7:54 AM 39.9 °F 32.5 °F 33.1 °F 77% 30.18 in 10.0 mi WSW 12.7 mph - N/A   Mostly Cloudy
8:54 AM 39.9 °F 33.4 °F 28.9 °F 65% 30.19 in 10.0 mi West 10.4 mph - N/A   Scattered Clouds
9:54 AM 41.0 °F 33.9 °F 30.0 °F 65% 30.21 in 10.0 mi West 12.7 mph - N/A   Scattered Clouds
10:54 AM 41.0 °F 33.9 °F 30.0 °F 65% 30.23 in 10.0 mi West 12.7 mph - N/A   Scattered Clouds
11:54 AM 42.1 °F 36.1 °F 30.0 °F 62% 30.22 in 10.0 mi West 10.4 mph - N/A   Scattered Clouds
12:54 PM 43.0 °F 36.8 °F 30.9 °F 62% 30.21 in 10.0 mi West 11.5 mph - N/A   Scattered Clouds
1:54 PM 43.0 °F 36.8 °F 32.0 °F 65% 30.21 in 10.0 mi SW 11.5 mph - N/A   Scattered Clouds
2:54 PM 42.1 °F 35.2 °F 30.9 °F 65% 30.21 in 10.0 mi WSW 12.7 mph - N/A   Mostly Cloudy
3:54 PM 41.0 °F 35.2 °F 32.0 °F 70% 30.22 in 10.0 mi SW 9.2 mph - N/A   Mostly Cloudy
4:54 PM 39.2 °F 34.2 °F 33.8 °F 81% 30.21 in 9.0 mi WSW 6.9 mph - N/A   Mostly Cloudy
5:54 PM 39.0 °F - 32.0 °F 76% 30.25 in 9.0 mi Calm Calm - N/A   Mostly Cloudy
6:54 PM 37.9 °F 34.4 °F 33.1 °F 83% 30.26 in 8.0 mi West 4.6 mph - N/A   Mostly Cloudy
7:54 PM 36.0 °F 32.1 °F 32.0 °F 86% 30.26 in 8.0 mi NW 4.6 mph - N/A   Scattered Clouds
8:54 PM 34.0 °F - 30.0 °F 85% 30.27 in 6.0 mi Calm Calm - N/A   Scattered Clouds
9:54 PM 33.1 °F 30.0 °F 30.9 °F 92% 30.28 in 3.0 mi SSE 3.5 mph - N/A   Partly Cloudy
10:54 PM 32.0 °F - 30.0 °F 92% 30.27 in 4.0 mi Calm Calm - N/A   Partly Cloudy
11:54 PM 32.0 °F - 30.0 °F 92% 30.27 in 6.0 mi Calm Calm - N/A   Partly Cloudy